Time,TemperatureF,DewpointF,PressureIn,WindDirection,WindDirectionDegrees,WindSpeedMPH,WindSpeedGustMPH,Humidity,HourlyPrecipIn,Conditions,Clouds,dailyrainin,SoftwareType,DateUTC
2013-05-01 00:06:00,68.6,68.0,30.00,East,94,0.0,0.0,96,0.00,,,0.00,weatherlink.com 1.10,2013-05-01 04:06:00,
2013-05-01 00:21:00,68.5,67.0,30.00,East,95,0.0,0.0,96,0.00,,,0.00,weatherlink.com 1.10,2013-05-01 04:21:00,
2013-05-01 00:36:00,68.3,67.0,29.99,East,95,0.0,0.0,96,0.00,,,0.00,weatherlink.com 1.10,2013-05-01 04:36:00,
2013-05-01 00:51:00,68.1,67.0,29.98,East,94,0.0,0.0,97,0.00,,,0.00,weatherlink.com 1.10,2013-05-01 04:51:00,
2013-05-01 01:06:00,68.1,67.0,29.98,East,94,0.0,0.0,97,0.00,,,0.00,weatherlink.com 1.10,2013-05-01 05:06:00,
2013-05-01 01:21:00,67.9,67.0,29.98,East,94,0.0,0.0,97,0.00,,,0.00,weatherlink.com 1.10,2013-05-01 05:21:00,
2013-05-01 01:36:00,68.0,67.0,29.97,East,94,0.0,0.0,97,0.00,,,0.00,weatherlink.com 1.10,2013-05-01 05:36:00,
2013-05-01 01:51:00,67.9,67.0,29.97,East,95,0.0,0.0,97,0.00,,,0.00,weatherlink.com 1.10,2013-05-01 05:51:00,
2013-05-01 02:06:00,68.0,67.0,29.96,East,94,0.0,0.0,97,0.00,,,0.00,weatherlink.com 1.10,2013-05-01 06:06:00,
2013-05-01 02:21:00,67.9,67.0,29.96,East,95,0.0,0.0,97,0.00,,,0.00,weatherlink.com 1.10,2013-05-01 06:21:00,
2013-05-01 02:36:00,67.9,67.0,29.95,East,94,0.0,0.0,97,0.00,,,0.00,weatherlink.com 1.10,2013-05-01 06:36:00,
2013-05-01 02:51:00,68.0,67.0,29.95,East,94,0.0,0.0,97,0.00,,,0.00,weatherlink.com 1.10,2013-05-01 06:51:00,
2013-05-01 03:06:00,68.0,67.0,29.94,East,94,0.0,1.0,97,0.00,,,0.00,weatherlink.com 1.10,2013-05-01 07:06:00,
2013-05-01 03:21:00,68.1,67.0,29.94,East,95,0.0,0.0,97,0.00,,,0.00,weatherlink.com 1.10,2013-05-01 07:21:00,
2013-05-01 03:36:00,68.3,68.0,29.94,East,94,0.0,0.0,98,0.00,,,0.00,weatherlink.com 1.10,2013-05-01 07:36:00,
2013-05-01 03:51:00,69.5,69.0,29.94,East,94,0.0,0.0,98,0.00,,,0.00,weatherlink.com 1.10,2013-05-01 07:51:00,
2013-05-01 04:07:00,70.7,70.0,29.94,ENE,77,0.0,0.0,98,0.00,,,0.00,weatherlink.com 1.10,2013-05-01 08:07:00,
2013-05-01 04:22:00,70.8,70.0,29.94,ENE,63,0.0,1.0,97,0.00,,,0.00,weatherlink.com 1.10,2013-05-01 08:22:00,
2013-05-01 04:37:00,70.7,70.0,29.95,ENE,63,0.0,1.0,97,0.00,,,0.00,weatherlink.com 1.10,2013-05-01 08:37:00,
2013-05-01 04:52:00,70.9,70.0,29.95,ENE,62,0.0,0.0,97,0.00,,,0.00,weatherlink.com 1.10,2013-05-01 08:52:00,
2013-05-01 05:07:00,70.5,70.0,29.95,ENE,63,0.0,0.0,97,0.00,,,0.00,weatherlink.com 1.10,2013-05-01 09:07:00,
2013-05-01 05:22:00,70.4,70.0,29.95,ENE,67,0.0,0.0,97,0.00,,,0.00,weatherlink.com 1.10,2013-05-01 09:22:00,
2013-05-01 05:37:00,70.2,69.0,29.94,ENE,65,0.0,0.0,97,0.00,,,0.00,weatherlink.com 1.10,2013-05-01 09:37:00,
2013-05-01 05:52:00,70.4,70.0,29.94,ENE,68,0.0,0.0,97,0.00,,,0.00,weatherlink.com 1.10,2013-05-01 09:52:00,
2013-05-01 06:07:00,71.3,70.0,29.94,ESE,111,1.0,2.0,97,0.00,,,0.00,weatherlink.com 1.10,2013-05-01 10:07:00,
2013-05-01 06:22:00,72.3,71.0,29.95,East,97,0.0,1.0,94,0.00,,,0.00,weatherlink.com 1.10,2013-05-01 10:22:00,
2013-05-01 06:37:00,72.9,70.0,29.96,East,101,0.0,2.0,91,0.00,,,0.00,weatherlink.com 1.10,2013-05-01 10:37:00,
2013-05-01 06:52:00,73.1,70.0,29.97,East,93,0.0,0.0,90,0.00,,,0.00,weatherlink.com 1.10,2013-05-01 10:52:00,
2013-05-01 07:07:00,73.2,71.0,29.97,East,79,1.0,1.0,91,0.00,,,0.00,weatherlink.com 1.10,2013-05-01 11:07:00,
2013-05-01 07:22:00,73.7,71.0,29.97,East,93,0.0,1.0,90,0.00,,,0.00,weatherlink.com 1.10,2013-05-01 11:22:00,
2013-05-01 07:37:00,74.2,71.0,29.98,ENE,72,0.0,2.0,90,0.00,,,0.00,weatherlink.com 1.10,2013-05-01 11:37:00,
2013-05-01 07:52:00,74.6,72.0,29.99,ENE,65,0.0,1.0,90,0.00,,,0.00,weatherlink.com 1.10,2013-05-01 11:52:00,
2013-05-01 08:07:00,75.1,72.0,29.99,SE,136,0.0,1.0,89,0.00,,,0.00,weatherlink.com 1.10,2013-05-01 12:07:00,
2013-05-01 08:22:00,75.4,72.0,29.98,East,101,0.0,1.0,88,0.00,,,0.00,weatherlink.com 1.10,2013-05-01 12:22:00,
2013-05-01 08:37:00,75.6,73.0,29.99,East,82,2.0,4.0,90,0.00,,,0.00,weatherlink.com 1.10,2013-05-01 12:37:00,
2013-05-01 08:52:00,75.9,73.0,29.99,East,96,1.0,3.0,90,0.00,,,0.00,weatherlink.com 1.10,2013-05-01 12:52:00,
2013-05-01 09:07:00,76.6,73.0,29.99,East,90,1.0,4.0,87,0.00,,,0.00,weatherlink.com 1.10,2013-05-01 13:07:00,
2013-05-01 09:22:00,77.5,73.0,29.98,East,88,1.0,3.0,85,0.00,,,0.00,weatherlink.com 1.10,2013-05-01 13:22:00,
2013-05-01 09:37:00,78.2,74.0,29.98,ENE,71,0.0,2.0,86,0.00,,,0.00,weatherlink.com 1.10,2013-05-01 13:37:00,
2013-05-01 09:52:00,79.2,74.0,29.99,ENE,68,1.0,5.0,83,0.00,,,0.00,weatherlink.com 1.10,2013-05-01 13:52:00,